DW6471 Weather Reports


Display with metric or nautical units.
time (UTC)temp
F
wind
direction
speed
MPH
gust
MPH
rain 1hr
in
rain 24hr
in
rain mn
in
humidity
%
barometer
mb
20260906201031 93 254 3.0 10.0 0.00 0.00 0.00 63 1010.6
20260906200529 93 215 2.0 10.0 0.00 0.00 0.00 63 1010.6
20260906200028 94 303 1.0 5.0 0.00 0.00 0.00 63 1010.6
20260906195527 94 223 2.0 5.0 0.00 0.00 0.00 61 1010.7
20260906195258 94 222 2.0 9.0 0.00 0.00 0.00 63 1010.8
20260906194523 94 207 2.0 9.0 0.00 0.00 0.00 62 1011.0
20260906194023 93 176 2.0 8.0 0.00 0.00 0.00 62 1011.0
20260906193524 93 211 2.0 8.0 0.00 0.00 0.00 63 1011.1
20260906193025 94 246 2.0 9.0 0.00 0.00 0.00 63 1011.2
20260906193021 94 220 2.0 8.0 0.00 0.00 0.00 62 1011.2
20260906192020 94 234 2.0 9.0 0.00 0.00 0.00 63 1011.1
20260906191517 94 327 1.0 6.0 0.00 0.00 0.00 64 1011.2
20260906191017 94 217 1.0 5.0 0.00 0.00 0.00 62 1011.3
20260906190516 94 305 2.0 5.0 0.00 0.00 0.00 64 1011.3
20260906190015 94 276 2.0 6.0 0.00 0.00 0.00 62 1011.5
20260906185514 94 220 2.0 6.0 0.00 0.00 0.00 62 1011.5
20260906185243 94 219 2.0 8.0 0.00 0.00 0.00 63 1011.6
20260906184511 94 226 1.0 8.0 0.00 0.00 0.00 60 1011.6
20260906184012 94 264 1.0 4.0 0.00 0.00 0.00 64 1011.6
20260906183508 93 236 1.0 3.0 0.00 0.00 0.00 64 1011.7
20260906183008 92 267 1.0 3.0 0.00 0.00 0.00 63 1011.8
20260906182505 92 75 1.0 3.0 0.00 0.00 0.00 63 1011.8
20260906182005 92 292 1.0 4.0 0.00 0.00 0.00 65 1011.9
20260906181506 92 316 1.0 4.0 0.00 0.00 0.00 66 1012.2
20260906181232 91 195 1.0 4.0 0.00 0.00 0.00 67 1012.3
20260906180729 91 265 1.0 4.0 0.00 0.00 0.00 67 1012.3
20260906175959 91 239 1.0 4.0 0.00 0.00 0.00 67 1012.4
20260906175459 91 233 1.0 4.0 0.00 0.00 0.00 65 1012.4
20260906175000 92 216 0.0 2.0 0.00 0.00 0.00 64 1012.5
20260906174459 91 271 0.0 2.0 0.00 0.00 0.00 66 1012.6
20260906173958 91 279 0.0 2.0 0.00 0.00 0.00 67 1012.5
20260906173458 91 248 0.0 3.0 0.00 0.00 0.00 67 1012.6
20260906172957 92 295 1.0 3.0 0.00 0.00 0.00 67 1012.7
20260906172727 93 306 1.0 4.0 0.00 0.00 0.00 67 1012.7
20260906171956 93 288 1.0 4.0 0.00 0.00 0.00 66 1012.8
20260906171455 94 238 1.0 4.0 0.00 0.00 0.00 63 1012.9
20260906170956 93 202 1.0 4.0 0.00 0.00 0.00 63 1013.0
20260906170455 93 207 1.0 3.0 0.00 0.00 0.00 64 1013.0
20260906165956 92 219 1.0 3.0 0.00 0.00 0.00 66 1013.0
20260906165453 92 222 0.0 3.0 0.00 0.00 0.00 68 1013.0
20260906164954 91 241 0.0 3.0 0.00 0.00 0.00 71 1013.1
20260906164453 90 217 0.0 3.0 0.00 0.00 0.00 70 1013.1
20260906163953 90 206 0.0 3.0 0.00 0.00 0.00 69 1013.2
20260906163721 90 338 0.0 3.0 0.00 0.00 0.00 67 1013.2
20260906162952 91 226 1.0 5.0 0.00 0.00 0.00 67 1013.2
20260906162452 92 184 1.0 5.0 0.00 0.00 0.00 65 1013.3
20260906162222 93 207 1.0 4.0 0.00 0.00 0.00 65 1013.2
20260906161451 92 208 1.0 4.0 0.00 0.00 0.00 64 1013.1
20260906160950 92 255 1.0 3.0 0.00 0.00 0.00 68 1013.1
20260906160449 91 217 0.0 2.0 0.00 0.00 0.00 67 1013.2
20260906155949 91 253 1.0 3.0 0.00 0.00 0.00 67 1013.0
20260906155719 92 216 1.0 3.0 0.00 0.00 0.00 67 1013.0
20260906154947 92 255 1.0 3.0 0.00 0.00 0.00 68 1013.1
20260906154445 92 316 0.0 3.0 0.00 0.00 0.00 66 1013.1
20260906153945 91 107 0.0 3.0 0.00 0.00 0.00 63 1013.1
20260906153444 91 88 1.0 4.0 0.00 0.00 0.00 65 1013.1
20260906152943 91 303 1.0 5.0 0.00 0.00 0.00 65 1013.1
20260906152443 91 324 1.0 5.0 0.00 0.00 0.00 63 1013.2
20260906151944 91 318 1.0 3.0 0.00 0.00 0.00 65 1013.2
20260906151441 91 311 0.0 3.0 0.00 0.00 0.00 68 1013.2
20260906150942 91 251 1.0 4.0 0.00 0.00 0.00 66 1013.1
20260906150441 91 3 0.0 4.0 0.00 0.00 0.00 64 1013.1
20260906145941 91 221 0.0 1.0 0.00 0.00 0.00 64 1013.1
20260906145442 91 202 0.0 1.0 0.00 0.00 0.00 66 1013.1
20260906144941 91 210 1.0 3.0 0.00 0.00 0.00 66 1013.1
20260906144441 90 233 1.0 3.0 0.00 0.00 0.00 64 1013.1
20260906143946 90 57 0.0 2.0 0.00 0.00 0.00 65 1013.1
20260906143942 90 266 0.0 2.0 0.00 0.00 0.00 64 1013.1
20260906142939 90 282 0.0 2.0 0.00 0.00 0.00 64 1013.0
20260906142439 90 335 0.0 2.0 0.00 0.00 0.00 67 1013.0
20260906141940 89 55 0.0 2.0 0.00 0.00 0.00 67 1013.0
20260906141438 89 170 0.0 2.0 0.00 0.00 0.00 71 1013.1
20260906140937 88 38 0.0 2.0 0.00 0.00 0.00 71 1013.2
20260906140708 88 233 0.0 2.0 0.00 0.00 0.00 67 1013.2
20260906135941 88 233 0.0 3.0 0.00 0.00 0.00 73 1013.1
20260906135937 89 233 0.0 3.0 0.00 0.00 0.00 72 1013.2
20260906134938 88 316 0.0 2.0 0.00 0.00 0.00 76 1013.1
20260906134437 87 346 0.0 2.0 0.00 0.00 0.00 77 1013.2
20260906134208 86 247 0.0 1.0 0.00 0.00 0.00 77 1013.2
20260906133438 86 266 0.0 2.0 0.00 0.00 0.00 78 1013.3
20260906132937 85 266 0.0 2.0 0.00 0.00 0.00 79 1013.4
20260906132437 86 215 0.0 1.0 0.00 0.00 0.00 78 1013.5
20260906132207 86 203 0.0 0.0 0.00 0.00 0.00 80 1013.4
20260906131436 85 203 0.0 0.0 0.00 0.00 0.00 82 1013.4
20260906130935 84 203 1.0 3.0 0.00 0.00 0.00 85 1013.5
20260906130436 83 203 1.0 3.0 0.00 0.00 0.00 84 1013.6
20260906125935 83 232 0.0 1.0 0.00 0.00 0.00 87 1013.5
20260906125435 82 232 0.0 2.0 0.00 0.00 0.00 91 1013.4
20260906124935 81 232 0.0 2.0 0.00 0.00 0.00 93 1013.3
20260906124707 80 212 0.0 1.0 0.00 0.00 0.00 95 1013.3
20260906123936 80 213 0.0 0.0 0.00 0.00 0.00 95 1013.2
20260906123434 79 213 0.0 0.0 0.00 0.00 0.00 94 1013.1
20260906122933 79 213 0.0 0.0 0.00 0.00 0.00 95 1013.1
20260906122433 79 213 0.0 0.0 0.00 0.00 0.00 96 1013.2
20260906121933 77 213 0.0 0.0 0.00 0.00 0.00 95 1013.1
20260906121433 77 213 0.0 0.0 0.00 0.00 0.00 95 1013.1
20260906120934 76 213 0.0 0.0 0.00 0.00 0.00 96 1012.9
20260906120433 76 213 0.0 0.0 0.00 0.00 0.00 96 1012.8
20260906115932 75 213 0.0 0.0 0.00 0.00 0.00 96 1012.9
20260906115431 75 213 0.0 0.0 0.00 0.00 0.00 96 1012.8
20260906114930 74 213 0.0 0.0 0.00 0.00 0.00 96 1012.9
20260906114429 74 213 0.0 0.0 0.00 0.00 0.00 96 1012.8
20260906113930 74 213 0.0 0.0 0.00 0.00 0.00 96 1012.7
20260906113429 74 212 0.0 0.0 0.00 0.00 0.00 96 1012.7
20260906112929 74 212 0.0 0.0 0.00 0.00 0.00 96 1012.7
20260906112429 74 213 0.0 0.0 0.00 0.00 0.00 95 1012.7
20260906111929 74 213 0.0 0.0 0.00 0.00 0.00 95 1012.7
20260906111430 74 213 0.0 0.0 0.00 0.00 0.00 95 1012.6
20260906110929 74 213 0.0 0.0 0.00 0.00 0.00 95 1012.7
20260906110700 74 213 0.0 0.0 0.00 0.00 0.00 95 1012.5
20260906105929 74 213 0.0 0.0 0.00 0.00 0.00 95 1012.6
20260906105428 74 213 0.0 0.0 0.00 0.00 0.00 95 1012.5
20260906104927 74 213 0.0 0.0 0.00 0.00 0.00 95 1012.5
20260906104427 74 213 0.0 0.0 0.00 0.00 0.00 96 1012.5
20260906104155 74 213 0.0 0.0 0.00 0.00 0.00 96 1012.4
20260906103425 74 213 0.0 0.0 0.00 0.00 0.00 95 1012.4
20260906102925 74 213 0.0 0.0 0.00 0.00 0.00 95 1012.3
20260906102425 74 213 0.0 0.0 0.00 0.00 0.00 95 1012.3
20260906101925 74 213 0.0 0.0 0.00 0.00 0.00 95 1012.2
20260906101425 74 213 0.0 0.0 0.00 0.00 0.00 95 1012.0
20260906101156 74 213 0.0 0.0 0.00 0.00 0.00 95 1012.0
20260906100423 74 213 0.0 0.0 0.00 0.00 0.00 95 1011.9
20260906095923 74 213 0.0 0.0 0.00 0.00 0.00 95 1011.9
20260906095423 75 213 0.0 0.0 0.00 0.00 0.00 95 1011.9
20260906094924 75 213 0.0 0.0 0.00 0.00 0.00 95 1011.8
20260906094423 75 213 0.0 0.0 0.00 0.00 0.00 95 1011.8
20260906093923 75 213 0.0 0.0 0.00 0.00 0.00 95 1011.9
20260906093423 75 212 0.0 0.0 0.00 0.00 0.00 95 1011.9
20260906092923 75 213 0.0 1.0 0.00 0.00 0.00 95 1011.9
20260906092423 75 213 0.0 1.0 0.00 0.00 0.00 95 1011.9
20260906091922 75 213 0.0 0.0 0.00 0.00 0.00 95 1011.8
20260906091421 75 213 0.0 0.0 0.00 0.00 0.00 95 1011.8
20260906090921 75 213 0.0 0.0 0.00 0.00 0.00 95 1011.7
20260906090422 75 213 0.0 0.0 0.00 0.00 0.00 95 1011.7
20260906085921 75 213 0.0 0.0 0.00 0.00 0.00 95 1011.6
20260906085421 75 213 0.0 0.0 0.00 0.00 0.00 95 1011.5
20260906084921 75 213 0.0 0.0 0.00 0.00 0.00 95 1011.5
20260906084421 75 213 0.0 0.0 0.00 0.00 0.00 95 1011.5
20260906083921 75 213 0.0 0.0 0.00 0.00 0.00 95 1011.4
20260906083419 75 213 0.0 0.0 0.00 0.00 0.00 95 1011.3
20260906083154 75 212 0.0 0.0 0.00 0.00 0.00 95 1011.4
20260906082919 75 213 0.0 0.0 0.00 0.00 0.00 95 1011.4
20260906081919 75 213 0.0 1.0 0.00 0.00 0.00 95 1011.5
20260906081419 75 213 0.0 1.0 0.00 0.00 0.00 95 1011.6
20260906080919 75 213 0.0 1.0 0.00 0.00 0.00 95 1011.5
20260906080419 75 213 0.0 0.0 0.00 0.00 0.00 95 1011.4
20260906080151 75 212 0.0 1.0 0.00 0.00 0.00 95 1011.3
20260906075419 75 213 0.0 1.0 0.00 0.00 0.00 95 1011.3
20260906074919 75 213 0.0 1.0 0.00 0.00 0.00 95 1011.5
20260906074417 75 213 0.0 1.0 0.00 0.00 0.00 95 1011.4
20260906073917 75 212 0.0 0.0 0.00 0.00 0.00 95 1011.4
20260906073418 75 213 0.0 0.0 0.00 0.00 0.00 95 1011.3
20260906072917 75 213 0.0 0.0 0.00 0.00 0.00 95 1011.4
20260906072417 75 213 0.0 0.0 0.00 0.00 0.00 95 1011.5
20260906071917 75 213 0.0 0.0 0.00 0.00 0.00 95 1011.6
20260906071417 75 212 0.0 0.0 0.00 0.00 0.00 95 1011.6
20260906070918 76 213 0.0 0.0 0.00 0.00 0.00 95 1011.6
20260906070417 76 213 0.0 0.0 0.00 0.00 0.00 95 1011.6
20260906065917 76 213 0.0 0.0 0.00 0.00 0.00 95 1011.6
20260906065415 76 213 0.0 0.0 0.00 0.00 0.00 95 1011.7
20260906064915 76 213 0.0 0.0 0.00 0.00 0.00 95 1011.7
20260906064415 76 213 0.0 1.0 0.00 0.00 0.00 95 1011.7
20260906063916 76 213 0.0 1.0 0.00 0.00 0.00 95 1011.7
20260906063415 76 213 0.0 0.0 0.00 0.00 0.00 95 1011.6
20260906062915 76 213 0.0 0.0 0.00 0.00 0.00 95 1011.6
20260906062415 76 213 0.0 0.0 0.00 0.00 0.00 95 1011.6
20260906061915 76 213 0.0 0.0 0.00 0.00 0.00 95 1011.7
20260906061416 76 213 0.0 0.0 0.00 0.00 0.00 94 1011.8
20260906060914 76 213 0.0 0.0 0.00 0.00 0.00 94 1011.7
20260906060413 76 213 0.0 0.0 0.00 0.00 0.00 94 1011.7
20260906055912 76 213 0.0 0.0 0.00 0.00 0.00 94 1011.8
20260906055413 76 213 0.0 0.0 0.00 0.00 0.00 94 1011.9
20260906054913 76 213 0.0 0.0 0.00 0.00 0.00 94 1012.0
20260906054412 76 213 0.0 0.0 0.00 0.00 0.00 94 1011.8
20260906053913 76 213 0.0 0.0 0.00 0.00 0.00 94 1011.8
20260906053413 76 213 0.0 0.0 0.00 0.00 0.00 94 1011.9
20260906052913 76 212 0.0 0.0 0.00 0.00 0.00 94 1011.8
20260906052644 76 213 0.0 0.0 0.00 0.00 0.00 94 1011.8
20260906051913 76 213 0.0 0.0 0.00 0.00 0.00 94 1011.9
20260906051411 76 213 0.0 0.0 0.00 0.00 0.00 94 1012.0
20260906050912 76 213 0.0 0.0 0.00 0.00 0.00 94 1012.2
20260906050411 77 213 0.0 0.0 0.00 0.00 0.00 94 1012.2
20260906045910 77 213 0.0 0.0 0.00 0.00 0.00 94 1012.2
20260906045410 77 213 0.0 0.0 0.00 0.00 0.00 94 1012.2
20260906044910 77 213 0.0 0.0 0.00 0.00 0.00 94 1012.2
20260906044409 77 213 0.0 0.0 0.00 0.00 0.00 94 1012.2
20260906043910 77 213 0.0 0.0 0.00 0.00 0.00 94 1012.3
20260906043409 77 213 0.0 0.0 0.00 0.00 0.00 94 1012.4
20260906042909 77 213 0.0 0.0 0.00 0.00 0.00 93 1012.5
20260906042410 77 213 0.0 0.0 0.00 0.00 0.00 93 1012.5
20260906042140 77 213 0.0 0.0 0.00 0.00 0.00 93 1012.5
20260906041409 77 213 0.0 0.0 0.00 0.00 0.00 93 1012.5
20260906040909 77 213 0.0 0.0 0.00 0.00 0.00 93 1012.5
20260906040410 77 213 0.0 0.0 0.00 0.00 0.00 93 1012.5
20260906040140 78 213 0.0 0.0 0.00 0.00 0.00 93 1012.6
20260906035641 78 213 0.0 0.0 0.00 0.00 0.00 92 1012.6
20260906035140 78 213 0.0 0.0 0.00 0.00 0.00 92 1012.7
20260906034410 78 213 0.0 0.0 0.00 0.00 0.00 92 1012.8
20260906033909 78 213 0.0 0.0 0.00 0.00 0.00 92 1012.7
20260906033410 78 213 0.0 0.0 0.00 0.00 0.00 92 1012.7
20260906032910 78 212 0.0 0.0 0.00 0.00 0.00 92 1012.7
20260906032409 78 213 0.0 0.0 0.00 0.00 0.00 91 1012.6
20260906031913 78 213 0.0 0.0 0.00 0.00 0.00 91 1012.6
20260906031909 78 213 0.0 0.0 0.00 0.00 0.00 91 1012.6
20260906031407 78 213 0.0 0.0 0.00 0.00 0.00 91 1012.6
20260906030406 79 213 0.0 0.0 0.00 0.00 0.00 90 1012.6
20260906025906 79 213 0.0 0.0 0.00 0.00 0.00 90 1012.5
20260906025405 79 213 0.0 0.0 0.00 0.00 0.00 89 1012.5
20260906024905 80 213 0.0 0.0 0.00 0.00 0.00 89 1012.4
20260906024406 80 213 0.0 0.0 0.00 0.00 0.00 88 1012.4
20260906023905 80 213 0.0 0.0 0.00 0.00 0.00 87 1012.3
20260906023404 80 213 0.0 0.0 0.00 0.00 0.00 86 1012.2
20260906022901 81 213 0.0 0.0 0.00 0.00 0.00 85 1012.2
20260906022401 81 213 0.0 0.0 0.00 0.00 0.00 85 1012.0
20260906021901 82 213 0.0 0.0 0.00 0.00 0.00 84 1011.9
20260906021358 82 213 0.0 4.0 0.00 0.00 0.00 83 1011.8
20260906021129 83 213 0.0 4.0 0.00 0.00 0.00 82 1011.8
20260906020628 83 211 0.0 2.0 0.00 0.00 0.00 82 1011.7
20260906015853 83 213 1.0 4.0 0.00 0.00 0.00 81 1011.7
20260906015353 83 221 1.0 4.0 0.00 0.00 0.00 81 1011.6
20260906014854 83 204 1.0 5.0 0.00 0.00 0.00 81 1011.6
20260906014625 83 230 1.0 5.0 0.00 0.00 0.00 81 1011.6
20260906013851 83 241 0.0 4.0 0.00 0.00 0.00 81 1011.7
20260906013350 83 233 1.0 4.0 0.00 0.00 0.00 80 1011.5
20260906012849 83 235 1.0 6.0 0.00 0.00 0.00 80 1011.5
20260906012347 83 250 1.0 6.0 0.00 0.00 0.00 80 1011.6
20260906011846 83 213 1.0 4.0 0.00 0.00 0.00 80 1011.5
20260906011346 83 199 0.0 3.0 0.00 0.00 0.00 81 1011.6
20260906010847 83 214 0.0 3.0 0.00 0.00 0.00 81 1011.5
20260906010843 83 175 0.0 3.0 0.00 0.00 0.00 81 1011.6
20260906005841 83 217 0.0 2.0 0.00 0.00 0.00 81 1011.6
20260906005342 83 206 0.0 2.0 0.00 0.00 0.00 81 1011.6
20260906004841 83 207 0.0 4.0 0.00 0.00 0.00 82 1011.5
20260906004837 83 213 0.0 3.0 0.00 0.00 0.00 82 1011.6
20260906003837 83 236 0.0 4.0 0.00 0.00 0.00 82 1011.5
20260906003605 83 227 0.0 2.0 0.00 0.00 0.00 83 1011.5
20260906003104 83 212 0.0 1.0 0.00 0.00 0.00 83 1011.5
20260906002333 83 212 0.0 1.0 0.00 0.00 0.00 83 1011.5
20260906001834 83 212 0.0 1.0 0.00 0.00 0.00 82 1011.4
20260906001333 83 212 0.0 1.0 0.00 0.00 0.00 82 1011.3
20260906000833 83 226 0.0 1.0 0.00 0.00 0.00 82 1011.4
20260906000334 83 226 0.0 2.0 0.00 0.00 0.00 81 1011.6
20260905235833 84 226 0.0 2.0 0.00 0.00 0.00 81 1011.7
20260905235333 84 227 0.0 1.0 0.00 0.00 0.00 81 1011.7
20260905235103 84 227 0.0 1.0 0.00 0.00 0.00 81 1011.6
20260905234935 85 227 0.0 1.0 0.00 0.00 0.00 80 1011.6
20260905233829 85 227 0.0 1.0 0.00 0.00 0.00 78 1011.5
20260905233328 85 226 0.0 1.0 0.00 0.00 0.00 78 1011.4
20260905233058 85 222 0.0 1.0 0.00 0.00 0.00 78 1011.4
20260905232324 86 259 0.0 2.0 0.00 0.00 0.00 77 1011.4
20260905231823 86 259 0.0 3.0 0.00 0.00 0.00 77 1011.3
20260905231321 86 245 0.0 3.0 0.00 0.00 0.00 78 1011.3
20260905230822 86 203 0.0 1.0 0.00 0.00 0.00 78 1011.3
20260905230317 86 203 0.0 1.0 0.00 0.00 0.00 77 1011.3
20260905225818 86 224 0.0 2.0 0.00 0.00 0.00 77 1011.2
20260905225315 87 224 0.0 2.0 0.00 0.00 0.00 76 1011.2
20260905224815 87 285 0.0 3.0 0.00 0.00 0.00 76 1011.2
20260905224316 87 227 0.0 3.0 0.00 0.00 0.00 75 1011.2
20260905223816 87 258 0.0 2.0 0.00 0.00 0.00 75 1011.3
20260905223315 87 259 0.0 2.0 0.00 0.00 0.00 74 1011.5
20260905222816 88 215 0.0 3.0 0.00 0.00 0.00 74 1011.4
20260905222315 88 213 0.0 3.0 0.00 0.00 0.00 73 1011.5
20260905221815 88 268 0.0 2.0 0.00 0.00 0.00 72 1011.6
20260905221316 89 235 1.0 3.0 0.00 0.00 0.00 72 1011.7
20260905221046 89 218 1.0 4.0 0.00 0.00 0.00 72 1011.7
20260905220316 89 218 1.0 4.0 0.00 0.00 0.00 69 1011.8
20260905215815 89 220 1.0 4.0 0.00 0.00 0.00 69 1011.8
20260905215315 90 228 1.0 4.0 0.00 0.00 0.00 70 1011.8
20260905214814 90 225 1.0 4.0 0.00 0.00 0.00 69 1011.8
20260905214544 90 205 1.0 4.0 0.00 0.00 0.00 70 1011.7
20260905213813 90 203 1.0 4.0 0.00 0.00 0.00 70 1011.7
20260905213314 89 207 1.0 3.0 0.00 0.00 0.00 73 1011.8
20260905213044 89 202 1.0 3.0 0.00 0.00 0.00 72 1011.8
20260905212310 88 206 1.0 3.0 0.00 0.00 0.00 74 1011.9
20260905212040 88 212 1.0 4.0 0.00 0.00 0.00 75 1012.0
20260905211310 87 211 1.0 4.0 0.00 0.04 0.00 75 1012.3
20260905210809 87 203 1.0 3.0 0.00 0.13 0.00 77 1012.3
20260905210310 87 78 1.0 3.0 0.00 0.18 0.00 77 1012.3
20260905205809 86 139 1.0 3.0 0.00 0.23 0.00 78 1012.0
20260905205308 87 96 1.0 3.0 0.00 0.28 0.00 77 1011.9
20260905204808 87 191 1.0 4.0 0.00 0.29 0.00 77 1011.9
20260905204538 87 198 1.0 4.0 0.00 0.29 0.00 76 1011.8
20260905203807 88 101 1.0 3.0 0.00 0.29 0.00 76 1011.8
20260905203308 88 212 0.0 3.0 0.00 0.30 0.00 76 1011.9
20260905203038 87 207 0.0 2.0 0.00 0.30 0.00 75 1012.0
20260905202307 87 243 0.0 1.0 0.00 0.30 0.00 76 1012.0
20260905201807 86 243 0.0 1.0 0.00 0.30 0.00 77 1012.0
20260905201543 86 243 1.0 3.0 0.00 0.30 0.00 79 1012.2
20260905201307 86 243 0.0 2.0 0.00 0.30 0.00 79 1012.2